CW4320 Penacastillo ES current weather conditions

sailwx.info

Wind from 274 at 8 knots

Air temperature 13.3° C
Dewpoint 4.5° C

Last reported at 2019-Dec-11 15:00 UTC.
Time now 2019-Dec-11 16:12 UTC

Location: N 43°27' W 003°53'.
View on Google Maps.

See reports from other nearby stations

  
Tides and Currents Weather Stations Pressure Air Temp Water Temp Dewpoint Dewpoint Depression Visibility Wind Speed Wind Dir Waves Ship Positions
date/time (UTC)wind fromknots sea level pressurealtimeterstation pressurevisibilityair tempwater tempwave heightnotes
2019-Dec-11 15:00 274 8 13.3
2019-Dec-11 14:50 231 8 13.3
2019-Dec-11 14:45 278 7 13.3
2019-Dec-11 14:40 349 6 13.3
2019-Dec-11 14:35 213 7 13.3
2019-Dec-11 14:30 186 8 13.3
2019-Dec-11 14:25 256 7 13.3
2019-Dec-11 14:20 219 7 13.3
2019-Dec-11 14:15 255 9 13.3
2019-Dec-11 14:10 297 8 13.3
2019-Dec-11 14:05 245 8 13.3
2019-Dec-11 14:00 269 7 13.3
2019-Dec-11 13:55 220 6 13.3
2019-Dec-11 13:50 325 7 13.3
2019-Dec-11 13:45 226 7 13.3
2019-Dec-11 13:40 272 7 13.3
2019-Dec-11 13:35 227 6 12.8
2019-Dec-11 13:30 281 7 12.8
2019-Dec-11 13:25 245 8 12.8
2019-Dec-11 13:20 260 7 12.8
2019-Dec-11 13:15 096 10 12.8
2019-Dec-11 13:10 276 10 12.8
2019-Dec-11 13:05 211 12 gusting 18 13.3
2019-Dec-11 13:00 248 6 gusting 17 12.8
2019-Dec-11 12:55 240 8 gusting 17 12.8
2019-Dec-11 12:50 281 9 gusting 17 12.8
2019-Dec-11 12:45 253 8 12.8
2019-Dec-11 12:40 200 7 12.8
2019-Dec-11 12:35 231 8 12.8
2019-Dec-11 12:30 319 8 12.8
2019-Dec-11 12:25 240 8 12.8
2019-Dec-11 12:20 229 10 12.2
2019-Dec-11 12:15 273 10 gusting 22 12.2
2019-Dec-11 12:11 276 11 gusting 20 12.2
2019-Dec-11 12:05 302 10 gusting 19 12.2
2019-Dec-11 12:00 240 11 gusting 19 12.2
2019-Dec-11 11:55 263 5 gusting 19 11.7
2019-Dec-11 11:50 188 6 gusting 18 11.7
2019-Dec-11 11:45 259 6 gusting 16 12.2
2019-Dec-11 11:40 236 7 gusting 15 12.2
2019-Dec-11 11:35 264 4 gusting 20 11.7
2019-Dec-11 11:30 250 10 gusting 20 11.7
2019-Dec-11 11:25 222 5 gusting 13 11.7
2019-Dec-11 11:20 200 5 gusting 13 11.7
2019-Dec-11 11:15 237 7 gusting 16 11.7
2019-Dec-11 11:10 196 7 gusting 16 11.7
2019-Dec-11 11:05 236 4 gusting 23 11.7
2019-Dec-11 11:01 272 9 gusting 23 11.7
2019-Dec-11 10:55 205 8 gusting 19 11.7
2019-Dec-11 10:50 241 5 gusting 19 11.7
2019-Dec-11 10:45 273 5 gusting 15 11.7
2019-Dec-11 10:40 264 7 gusting 15 11.1
2019-Dec-11 10:35 264 6 11.1
2019-Dec-11 10:30 249 4 11.1
2019-Dec-11 10:26 282 5 11.1
2019-Dec-11 10:20 248 6 11.1
2019-Dec-11 10:15 271 7 11.1
2019-Dec-11 10:10 228 6 11.1
2019-Dec-11 10:05 360 5 10.6
2019-Dec-11 10:01 241 5 gusting 13 10.6
2019-Dec-11 09:55 239 6 gusting 13 10.0
2019-Dec-11 09:51 203 3 gusting 13 10.0
2019-Dec-11 09:45 184 5 gusting 15 10.0
2019-Dec-11 09:40 212 6 gusting 15 10.0
2019-Dec-11 09:35 230 2 gusting 13 10.0
2019-Dec-11 09:30 213 6 gusting 13 10.0
2019-Dec-11 09:25 215 4 gusting 9 10.0
2019-Dec-11 09:20 243 5 10.0
2019-Dec-11 09:15 205 5 10.0
2019-Dec-11 09:10 238 6 10.0
2019-Dec-11 09:05 247 6 10.0
2019-Dec-11 09:00 270 6 10.0
2019-Dec-11 08:55 170 6 10.0
2019-Dec-11 08:50 250 6 10.0
2019-Dec-11 08:45 190 6 9.4
2019-Dec-11 08:40 328 7 9.4
2019-Dec-11 08:35 250 9 9.4
2019-Dec-11 08:30 231 8 9.4
2019-Dec-11 08:25 212 8 9.4
2019-Dec-11 08:20 293 10 9.4
2019-Dec-11 08:15 254 8 10.0
2019-Dec-11 08:10 284 7 10.0
2019-Dec-11 08:05 253 7 10.0
2019-Dec-11 08:00 236 7 10.0
2019-Dec-11 07:55 259 7 9.4
2019-Dec-11 07:50 248 6 9.4
2019-Dec-11 07:45 172 7 gusting 17 10.0
2019-Dec-11 07:40 265 6 gusting 17 10.0
2019-Dec-11 07:35 268 6 gusting 17 10.0
2019-Dec-11 07:30 253 8 gusting 19 10.0
2019-Dec-11 07:25 245 11 gusting 19 9.4
2019-Dec-11 07:20 232 9 gusting 18 9.4
2019-Dec-11 07:15 278 9 gusting 19 9.4
2019-Dec-11 07:10 260 12 gusting 19 9.4
2019-Dec-11 07:05 271 12 gusting 19 9.4
2019-Dec-11 07:00 262 9 gusting 23 10.0
2019-Dec-11 06:55 286 13 gusting 23 10.0
2019-Dec-11 06:50 286 14 gusting 21 10.0
2019-Dec-11 06:45 288 14 gusting 22 10.6
2019-Dec-11 06:40 299 14 gusting 22 10.6
2019-Dec-11 06:35 290 13 gusting 21 11.1
2019-Dec-11 06:30 278 9 11.1
2019-Dec-11 06:25 253 10 10.6
2019-Dec-11 06:20 264 11 10.6
2019-Dec-11 06:15 265 11 10.6
2019-Dec-11 06:10 285 11 10.6
2019-Dec-11 06:05 264 12 10.6
2019-Dec-11 06:00 278 10 11.1
2019-Dec-11 05:55 284 8 11.1
2019-Dec-11 05:51 260 7 11.1
2019-Dec-11 05:45 262 7 11.1
2019-Dec-11 05:40 262 8 11.1
2019-Dec-11 05:35 237 9 11.1
2019-Dec-11 05:30 285 8 11.1
2019-Dec-11 05:25 258 8 11.1
2019-Dec-11 05:20 277 9 11.1
2019-Dec-11 05:15 265 9 11.1
2019-Dec-11 05:10 227 10 11.1
2019-Dec-11 05:05 240 11 11.1
2019-Dec-11 05:00 285 13 11.1
2019-Dec-11 04:55 283 12 11.7
2019-Dec-11 04:50 289 13 11.7
2019-Dec-11 04:45 269 12 12.2
2019-Dec-11 04:40 289 10 12.8
2019-Dec-11 04:35 276 11 13.3
2019-Dec-11 04:30 281 10 13.3
2019-Dec-11 04:25 255 7 13.3
2019-Dec-11 04:20 210 6 13.3
2019-Dec-11 04:15 260 6 13.3
2019-Dec-11 04:10 287 7 13.3
2019-Dec-11 04:05 260 7 13.9
2019-Dec-11 04:00 238 7 13.9
2019-Dec-11 03:55 264 6 13.9
2019-Dec-11 03:50 248 6 13.9
2019-Dec-11 03:45 243 6 13.9
2019-Dec-11 03:40 283 6 13.9
2019-Dec-11 03:35 250 6 13.9
2019-Dec-11 03:30 283 7 13.9
2019-Dec-11 03:20 280 5 13.3
2019-Dec-11 03:15 240 3 12.8
2019-Dec-11 03:10 203 3 12.8
2019-Dec-11 03:05 214 3 12.2
2019-Dec-11 03:00 223 2 12.2
2019-Dec-11 02:55 280 3 12.2
2019-Dec-11 02:50 205 2 12.8
2019-Dec-11 02:45 204 2 12.8
2019-Dec-11 02:40 221 2 12.8
2019-Dec-11 02:35 167 2 12.8
2019-Dec-11 02:30 165 2 12.8
2019-Dec-11 02:25 165 3 12.8
2019-Dec-11 02:15 192 4 12.2
2019-Dec-11 02:10 208 2 12.2
2019-Dec-11 02:05 210 1 12.2
2019-Dec-11 02:00 193 2 12.2
2019-Dec-11 01:55 162 3 12.2
2019-Dec-11 01:50 135 5 12.2
2019-Dec-11 01:45 124 3 11.7
2019-Dec-11 01:40 108 11.7
2019-Dec-11 01:35 161 11.7
2019-Dec-11 01:30 162 12.2
2019-Dec-11 01:25 162 0 12.2
2019-Dec-11 01:20 162 0 12.2
2019-Dec-11 01:15 161 1 12.2
2019-Dec-11 01:10 162 1 12.8
2019-Dec-11 01:05 161 2 12.8
2019-Dec-11 01:00 161 1 12.8
2019-Dec-11 00:55 159 0 12.8
2019-Dec-11 00:50 160 1 12.8
2019-Dec-11 00:45 160 2 12.8
2019-Dec-11 00:40 160 2 12.8
2019-Dec-11 00:35 160 2 12.8
2019-Dec-11 00:30 158 3 12.8
2019-Dec-11 00:25 164 2 12.8
2019-Dec-11 00:20 159 3 12.8
2019-Dec-11 00:15 160 4 12.8
2019-Dec-11 00:10 195 3 12.8
2019-Dec-11 00:05 144 3 12.8
2019-Dec-11 00:00 143 2 12.2
2019-Dec-10 23:55 136 1 12.2
2019-Dec-10 23:50 137 0 12.2
2019-Dec-10 23:45 136 0 12.2
2019-Dec-10 23:40 136 1 12.2
2019-Dec-10 23:35 135 2 12.2
2019-Dec-10 23:30 134 4 12.2
2019-Dec-10 23:25 128 4 12.8
2019-Dec-10 23:20 129 4 12.8
2019-Dec-10 23:15 127 3 12.8
2019-Dec-10 23:10 135 4 12.8
2019-Dec-10 23:05 136 4 12.8
2019-Dec-10 23:00 153 4 12.8
2019-Dec-10 22:55 139 4 12.2
2019-Dec-10 22:50 131 4 12.2
2019-Dec-10 22:45 127 4 12.2
2019-Dec-10 22:40 120 4 12.2
2019-Dec-10 22:35 150 4 gusting 9 12.2
2019-Dec-10 22:30 131 4 gusting 10 12.2
2019-Dec-10 22:25 146 5 gusting 12 11.7
2019-Dec-10 22:20 166 6 gusting 12 11.1
2019-Dec-10 22:15 132 5 gusting 7 10.6
2019-Dec-10 22:05 120 2 gusting 6 9.4
2019-Dec-10 22:00 113 9.4
2019-Dec-10 21:55 110 0 gusting 3 9.4
2019-Dec-10 21:50 110 0 gusting 4 9.4
2019-Dec-10 21:46 110 9.4
2019-Dec-10 21:40 110 9.4
2019-Dec-10 21:35 110 9.4
2019-Dec-10 21:30 110 10.0
2019-Dec-10 21:20 109 2 gusting 4 10.0
2019-Dec-10 21:15 106 1 gusting 4 10.0
2019-Dec-10 21:10 062 2 gusting 3 10.0
2019-Dec-10 21:05 063 10.0
2019-Dec-10 21:00 063 10.0
2019-Dec-10 20:55 062 10.6
2019-Dec-10 20:50 061 1 gusting 2 10.6
2019-Dec-10 20:45 061 0 gusting 2 10.6
2019-Dec-10 20:40 063 10.6
2019-Dec-10 20:35 063 10.6
2019-Dec-10 20:30 063 10.6
2019-Dec-10 20:21 060 11.1
2019-Dec-10 20:15 061 11.1
2019-Dec-10 20:11 061 11.1
2019-Dec-10 20:05 062 0 gusting 1 11.1
2019-Dec-10 20:00 063 0 gusting 1 11.1
2019-Dec-10 19:55 062 11.7
2019-Dec-10 19:50 060 11.7
2019-Dec-10 19:45 061 0 gusting 1 11.7
2019-Dec-10 19:41 062 11.7
2019-Dec-10 19:35 062 12.2
2019-Dec-10 19:30 063 12.2
2019-Dec-10 19:25 061 1 gusting 2 12.2
2019-Dec-10 19:20 063 12.2
2019-Dec-10 19:15 061 12.2
2019-Dec-10 19:10 063 12.2
2019-Dec-10 19:05 063 1 gusting 2 12.2
2019-Dec-10 19:00 063 1 gusting 2 12.2
2019-Dec-10 18:55 061 1 gusting 2 12.2
2019-Dec-10 18:50 063 12.2
2019-Dec-10 18:46 061 12.2
2019-Dec-10 18:40 062 12.2
2019-Dec-10 18:35 063 12.2
2019-Dec-10 18:30 060 12.2
2019-Dec-10 18:25 062 12.2
2019-Dec-10 18:20 063 12.2
2019-Dec-10 18:15 062 12.2
2019-Dec-10 18:10 063 12.2
2019-Dec-10 18:05 062 12.8
2019-Dec-10 18:00 062 12.8
2019-Dec-10 17:55 062 12.8
2019-Dec-10 17:50 061 12.8
2019-Dec-10 17:45 061 12.8
2019-Dec-10 17:40 063 13.3
2019-Dec-10 17:35 063 13.3
2019-Dec-10 17:30 060 13.3
2019-Dec-10 17:25 063 13.3
2019-Dec-10 17:20 062 0 gusting 3 13.3
2019-Dec-10 17:15 061 1 gusting 4 13.3
2019-Dec-10 17:10 063 2 gusting 4 13.3
2019-Dec-10 17:00 062 1 gusting 3 13.3
2019-Dec-10 16:55 061 0 gusting 2 13.3
2019-Dec-10 16:50 062 0 gusting 2 13.3
2019-Dec-10 16:45 062 1 gusting 2 13.9
2019-Dec-10 16:40 063 0 gusting 1 13.9
2019-Dec-10 16:35 064 0 gusting 1 13.9
2019-Dec-10 16:30 060 0 gusting 1 13.9
2019-Dec-10 16:25 061 13.9
2019-Dec-10 16:20 060 14.4
2019-Dec-10 16:15 062 1 gusting 2 14.4
2019-Dec-10 16:10 062 14.4
2019-Dec-10 16:05 063 14.4
2019-Dec-10 16:01 062 14.4
2019-Dec-10 15:55 062 15.0
2019-Dec-10 15:50 063 15.0
2019-Dec-10 15:45 062 15.0
2019-Dec-10 15:40 063 0 gusting 2 15.0
2019-Dec-10 15:35 062 1 gusting 2 15.0
2019-Dec-10 15:30 065 1 gusting 2 15.0
2019-Dec-10 15:25 060 0 gusting 2 15.6
2019-Dec-10 15:20 062 0 gusting 2 15.6
2019-Dec-10 15:15 062 0 gusting 1 15.6
2019-Dec-10 15:10 062 15.6
2019-Dec-10 15:05 063 0 gusting 1 15.6
2019-Dec-10 15:00 062 15.6
2019-Dec-10 14:55 061 15.6
2019-Dec-10 14:50 063 15.6
2019-Dec-10 14:45 062 0 gusting 3 15.6
2019-Dec-10 14:40 062 15.6
2019-Dec-10 14:35 062 0 gusting 2 15.6
2019-Dec-10 14:30 061 0 gusting 2 15.6
2019-Dec-10 14:25 060 15.0
2019-Dec-10 14:20 062 15.0
2019-Dec-10 14:15 062 0 gusting 3 15.0
2019-Dec-10 14:05 062 0 gusting 3 15.0
2019-Dec-10 14:00 060 0 gusting 3 15.0
2019-Dec-10 13:55 062 1 gusting 3 15.0
2019-Dec-10 13:50 063 1 gusting 4 15.0
2019-Dec-10 13:46 063 2 gusting 4 15.0
2019-Dec-10 13:40 060 1 gusting 4 15.0
2019-Dec-10 13:35 062 1 gusting 5 15.0
2019-Dec-10 13:31 061 3 gusting 5 15.6
2019-Dec-10 13:25 093 1 gusting 3 15.0
2019-Dec-10 13:20 094 1 gusting 3 15.6
2019-Dec-10 13:15 096 0 gusting 3 15.6
2019-Dec-10 13:10 096 1 gusting 4 15.6
2019-Dec-10 13:05 097 15.0
2019-Dec-10 13:01 107 2 gusting 3 15.0
2019-Dec-10 12:55 108 0 gusting 2 15.0
2019-Dec-10 12:50 110 1 gusting 2 15.0
2019-Dec-10 12:45 110 15.0
2019-Dec-10 12:40 110 0 gusting 1 15.0
2019-Dec-10 12:35 110 14.4
2019-Dec-10 12:30 110 14.4
2019-Dec-10 12:25 110 14.4
2019-Dec-10 12:20 109 14.4
2019-Dec-10 12:15 110 15.0
2019-Dec-10 12:11 110 14.4
2019-Dec-10 12:05 110 14.4
2019-Dec-10 12:00 109 14.4
2019-Dec-10 11:55 110 14.4
2019-Dec-10 11:51 110 0 gusting 1 14.4
2019-Dec-10 11:45 109 14.4
2019-Dec-10 11:40 110 13.9
2019-Dec-10 11:35 110 13.9
2019-Dec-10 11:30 110 13.3
2019-Dec-10 11:26 112 13.3
2019-Dec-10 11:20 110 0 gusting 2 12.8
2019-Dec-10 11:16 111 0 gusting 2 12.8
2019-Dec-10 11:10 110 0 gusting 2 12.2
2019-Dec-10 11:05 110 0 gusting 2 12.2
2019-Dec-10 11:00 111 1 gusting 3 11.7
2019-Dec-10 10:55 111 2 gusting 3 11.1
2019-Dec-10 10:50 111 1 gusting 2 11.1
2019-Dec-10 10:45 111 11.1
2019-Dec-10 10:40 110 1 gusting 3 11.1
2019-Dec-10 10:35 111 2 gusting 2 11.1
2019-Dec-10 10:30 111 10.6
2019-Dec-10 10:26 112 10.6
2019-Dec-10 10:20 110 10.0
2019-Dec-10 10:15 110 9.4
2019-Dec-10 10:11 113 0 gusting 1 9.4
2019-Dec-10 10:05 110 8.9
2019-Dec-10 10:00 111 0 gusting 3 8.9
2019-Dec-10 09:55 112 1 gusting 4 8.3
2019-Dec-10 09:50 113 2 gusting 4 8.3
2019-Dec-10 09:45 115 3 gusting 4 8.3
2019-Dec-10 09:40 136 3 gusting 4 8.3
2019-Dec-10 09:35 169 1 gusting 3 7.8
2019-Dec-10 09:30 172 1 gusting 3 7.8
2019-Dec-10 09:25 174 1 7.8
2019-Dec-10 09:20 173 1 7.2
2019-Dec-10 09:15 174 0 7.2
2019-Dec-10 09:10 174 7.2
2019-Dec-10 09:05 174 6.7
2019-Dec-10 09:00 173 6.7
2019-Dec-10 08:55 174 6.7
2019-Dec-10 08:50 174 6.7
2019-Dec-10 08:45 174 6.1
2019-Dec-10 08:40 174 0 6.1
2019-Dec-10 08:35 174 1 6.1
2019-Dec-10 08:30 171 1 6.1
2019-Dec-10 08:20 172 0 6.1
2019-Dec-10 08:15 174 0 6.1
2019-Dec-10 08:10 173 6.1
2019-Dec-10 08:05 174 6.1
2019-Dec-10 08:00 174 6.1
2019-Dec-10 07:55 174 6.1
2019-Dec-10 07:50 173 6.1
2019-Dec-10 07:45 174 6.1
2019-Dec-10 07:40 174 6.1
2019-Dec-10 07:35 173 6.1
2019-Dec-10 07:30 174 6.1
2019-Dec-10 07:25 174 0 6.1
2019-Dec-10 07:20 174 1 gusting 2 6.1
2019-Dec-10 07:15 172 1 gusting 2 6.1
2019-Dec-10 07:10 174 1 gusting 3 6.1
2019-Dec-10 07:05 174 2 gusting 3 6.1
2019-Dec-10 07:00 173 0 gusting 2 6.7
2019-Dec-10 06:55 173 0 gusting 1 6.7
2019-Dec-10 06:50 173 6.7
2019-Dec-10 06:45 174 1 gusting 3 6.7
2019-Dec-10 06:40 174 2 gusting 3 6.7
2019-Dec-10 06:35 174 6.7
2019-Dec-10 06:30 175 2 gusting 3 6.7
2019-Dec-10 06:25 172 1 6.7
2019-Dec-10 06:20 173 0 6.7
2019-Dec-10 06:15 174 0 6.7
2019-Dec-10 06:10 174 0 6.7
2019-Dec-10 06:05 174 6.7
2019-Dec-10 06:00 172 6.7
2019-Dec-10 05:55 174 6.7
2019-Dec-10 05:50 174 6.7
2019-Dec-10 05:45 174 6.7
2019-Dec-10 05:40 174 6.7
2019-Dec-10 05:35 174 6.7
2019-Dec-10 05:30 171 7.2
2019-Dec-10 05:25 172 7.2
2019-Dec-10 05:20 174 7.2
2019-Dec-10 05:15 172 7.8
2019-Dec-10 05:10 174 7.8
2019-Dec-10 05:05 167 7.8
2019-Dec-10 05:00 173 7.8
2019-Dec-10 04:55 173 7.8
2019-Dec-10 04:50 173 0 7.8
2019-Dec-10 04:45 174 1 7.8
2019-Dec-10 04:40 174 2 7.8
2019-Dec-10 04:35 174 2 7.8
2019-Dec-10 04:30 174 2 8.3
2019-Dec-10 04:25 174 2 8.3
2019-Dec-10 04:20 176 2 7.8
2019-Dec-10 04:15 176 2 7.8
2019-Dec-10 04:10 179 1 7.8
2019-Dec-10 04:05 176 1 7.8
2019-Dec-10 04:00 175 1 7.8
2019-Dec-10 03:55 175 2 7.8
2019-Dec-10 03:50 176 2 7.8
2019-Dec-10 03:45 176 0 7.8
2019-Dec-10 03:40 175 7.8
2019-Dec-10 03:35 175 7.8
2019-Dec-10 03:30 177 8.3
2019-Dec-10 03:25 174 8.3
2019-Dec-10 03:20 176 8.9
2019-Dec-10 03:15 175 0 8.9
2019-Dec-10 03:10 175 1 9.4
2019-Dec-10 03:05 175 1 9.4
2019-Dec-10 03:00 176 2 9.4
2019-Dec-10 02:55 175 2 9.4
2019-Dec-10 02:50 176 2 9.4
2019-Dec-10 02:45 214 1 9.4
2019-Dec-10 02:40 213 2 9.4
2019-Dec-10 02:35 214 2 9.4
2019-Dec-10 02:30 213 1 9.4
2019-Dec-10 02:25 216 0 9.4
2019-Dec-10 02:20 216 0 9.4
2019-Dec-10 02:15 217 0 9.4
2019-Dec-10 02:10 215 0 9.4
2019-Dec-10 02:05 216 0 9.4
2019-Dec-10 02:00 215 0 9.4
2019-Dec-10 01:55 215 9.4
2019-Dec-10 01:50 216 9.4
2019-Dec-10 01:45 215 9.4
2019-Dec-10 01:40 217 9.4
2019-Dec-10 01:35 217 9.4
2019-Dec-10 01:30 216 9.4
2019-Dec-10 01:25 217 9.4
2019-Dec-10 01:20 216 9.4
2019-Dec-10 01:15 215 9.4
2019-Dec-10 01:10 216 10.0
2019-Dec-10 01:05 219 10.0
2019-Dec-10 01:00 216 10.0
2019-Dec-10 00:55 215 10.0
2019-Dec-10 00:50 218 10.0
2019-Dec-10 00:45 360 10.0
2019-Dec-10 00:40 216 10.0
2019-Dec-10 00:35 217 10.0
2019-Dec-10 00:30 214 10.0
2019-Dec-10 00:25 212 10.0
2019-Dec-10 00:20 217 10.0
2019-Dec-10 00:15 217 10.0
2019-Dec-10 00:10 215 10.0
2019-Dec-10 00:05 215 10.0
2019-Dec-10 00:00 214 10.0
2019-Dec-09 23:55 216 10.6
2019-Dec-09 23:50 215 10.6
2019-Dec-09 23:45 215 10.6
2019-Dec-09 23:40 217 10.6
2019-Dec-09 23:35 216 1 gusting 2 10.6
2019-Dec-09 23:30 216 0 gusting 2 10.6
2019-Dec-09 23:25 216 0 gusting 2 11.1
2019-Dec-09 23:20 216 11.1
2019-Dec-09 23:15 216 11.1
2019-Dec-09 23:11 214 11.1
2019-Dec-09 23:05 215 11.1
2019-Dec-09 23:00 217 11.1
2019-Dec-09 22:55 217 11.1
2019-Dec-09 22:50 219 11.1
2019-Dec-09 22:45 216 11.1
2019-Dec-09 22:40 216 0 gusting 4 11.1
2019-Dec-09 22:35 217 11.7
2019-Dec-09 22:30 216 11.7
2019-Dec-09 22:25 217 11.7
2019-Dec-09 22:20 217 11.7
2019-Dec-09 22:15 217 2 gusting 4 11.7
2019-Dec-09 22:10 215 2 gusting 5 11.7
2019-Dec-09 22:05 217 1 gusting 5 11.7
2019-Dec-09 22:00 217 0 gusting 4 11.7
2019-Dec-09 21:55 217 1 gusting 5 11.7
2019-Dec-09 21:50 216 3 gusting 6 11.7
2019-Dec-09 21:45 217 4 gusting 6 11.7
2019-Dec-09 21:40 254 11.7
2019-Dec-09 21:35 253 11.7
2019-Dec-09 21:30 254 1 gusting 4 11.7
2019-Dec-09 21:25 255 0 gusting 4 11.7
2019-Dec-09 21:20 266 11.7
2019-Dec-09 21:15 267 1 gusting 3 11.7
2019-Dec-09 21:10 269 0 gusting 3 11.7
2019-Dec-09 21:05 270 11.7
2019-Dec-09 21:00 268 11.7
2019-Dec-09 20:55 267 11.7
2019-Dec-09 20:50 267 0 gusting 2 11.7
2019-Dec-09 20:45 269 11.7
2019-Dec-09 20:40 266 11.7
2019-Dec-09 20:35 266 1 11.7
2019-Dec-09 20:30 270 1 11.7
2019-Dec-09 20:25 268 0 gusting 6 11.7
2019-Dec-09 20:20 270 2 gusting 6 11.7
2019-Dec-09 20:15 264 0 gusting 5 11.7
2019-Dec-09 20:10 264 0 gusting 3 11.7
2019-Dec-09 20:05 264 0 gusting 4 11.7
2019-Dec-09 20:00 265 1 gusting 5 11.7
2019-Dec-09 19:55 265 2 gusting 5 11.7
2019-Dec-09 19:50 273 2 gusting 5 11.7
2019-Dec-09 19:45 274 2 gusting 5 11.7
2019-Dec-09 19:40 276 0 gusting 4 11.7
2019-Dec-09 19:35 283 0 gusting 4 11.7
2019-Dec-09 19:30 282 1 gusting 5 11.7
2019-Dec-09 19:25 285 0 gusting 5 11.7
2019-Dec-09 19:20 273 1 gusting 8 11.7
2019-Dec-09 19:15 269 3 gusting 9 11.7
2019-Dec-09 19:10 294 5 gusting 9 11.7
2019-Dec-09 19:05 286 4 gusting 7 11.7
2019-Dec-09 19:00 284 3 gusting 6 11.7
2019-Dec-09 18:55 307 3 gusting 6 12.2
2019-Dec-09 18:50 288 4 gusting 10 12.2
2019-Dec-09 18:45 290 4 gusting 10 12.2
2019-Dec-09 18:40 285 6 gusting 9 12.2
2019-Dec-09 18:35 282 6 12.2
2019-Dec-09 18:30 292 5 12.2
2019-Dec-09 18:25 281 5 12.2
2019-Dec-09 18:20 283 6 12.2
2019-Dec-09 18:15 290 6 12.2
2019-Dec-09 18:11 282 6 gusting 13 12.2
2019-Dec-09 18:05 280 9 gusting 13 12.2
2019-Dec-09 18:00 292 6 gusting 12 12.2
2019-Dec-09 17:55 288 6 gusting 10 12.2
2019-Dec-09 17:50 289 5 gusting 13 12.2
2019-Dec-09 17:45 285 9 gusting 13 12.2
2019-Dec-09 17:39 287 6 gusting 12 12.2
2019-Dec-09 17:30 302 4 gusting 12 12.2
2019-Dec-09 17:25 295 4 gusting 10 12.2
2019-Dec-09 17:20 285 6 gusting 8 12.2
2019-Dec-09 17:15 259 3 gusting 11 12.2
2019-Dec-09 17:10 254 5 gusting 11 12.2
2019-Dec-09 17:05 261 6 gusting 10 12.2
2019-Dec-09 17:00 257 6 gusting 11 12.2
2019-Dec-09 16:55 279 3 gusting 13 12.2
2019-Dec-09 16:50 282 6 gusting 13 12.2
2019-Dec-09 16:45 283 7 gusting 13 12.2
2019-Dec-09 16:40 269 9 gusting 13 12.2
2019-Dec-09 16:35 315 5 gusting 13 12.2
2019-Dec-09 16:30 279 8 gusting 13 12.2
2019-Dec-09 16:25 269 8 gusting 13 12.2
2019-Dec-09 16:20 266 6 gusting 13 12.2
2019-Dec-09 16:15 270 8 gusting 14 12.2
2019-Dec-09 16:10 284 7 gusting 15 12.2
2019-Dec-09 16:05 274 10 gusting 15 12.8
2019-Dec-09 16:00 271 7 gusting 15 12.8